Location: Gad�tanya
(48.0500°N, 20.8500°E)
Time: 11:40:50
(UTC+00:00)

Meteor 2-10 Rocket - Pass Details

Date: 05 July 2020
Orbit: 734 x 884 km, 81.2° (Epoch: 14 August)

Event Time Altitude Azimuth Distance (km) Brightness Sun altitude
Rises 19:28:12 0° 346° (NNW) 3,193 7.9 -7.1°
Reaches altitude 10° 19:30:31 10° 343° (NNW) 2,276 7.1 -7.4°
Maximum altitude 19:35:34 67° 262° (W) 830 3.9 -7.9°
Drops below altitude 10° 19:40:46 10° 181° (S) 2,337 5.6 -8.5°
Enters shadow 19:42:30 - 179° (S) 3,016 6.1 -8.7°
